Location: Cisewo
(53.3833°N, 14.9000°E)
Time: 15:30:54
(UTC+00:00)

POLYITAN 1 - Visible Passes

Search period start: 25 September 2021 00:00
Search period end: 05 October 2021 00:00
Orbit: 590 x 609 km, 97.9° (Epoch: 24 September)

Date Brightness Start Highest point End Pass type
(mag) Time Alt. Az. Time Alt. Az. Time Alt. Az.
25 Sep ? 01:28:41 10° N 01:30:41 24° NNW 01:30:41 24° NNW visible
26 Sep ? 00:03:55 10° NNE 00:05:01 17° NE 00:05:01 17° NE visible
26 Sep ? 01:39:51 10° N 01:41:45 21° NNW 01:41:45 21° NNW visible
27 Sep ? 00:14:53 10° NNE 00:16:05 18° NNE 00:16:05 18° NNE visible
27 Sep ? 01:51:04 10° N 01:52:49 19° NNW 01:52:49 19° NNW visible
28 Sep ? 00:25:53 10° NNE 00:27:08 19° NNE 00:27:08 19° NNE visible
28 Sep ? 02:02:19 10° NNW 02:03:53 17° NNW 02:03:53 17° NNW visible
29 Sep ? 00:36:54 10° NNE 00:38:12 19° NNE 00:38:12 19° NNE visible
29 Sep ? 02:13:38 10° NNW 02:14:56 14° NNW 02:14:56 14° NNW visible
30 Sep ? 00:47:57 10° NNE 00:49:15 20° NNE 00:49:15 20° NNE visible
30 Sep ? 02:25:03 10° NNW 02:25:59 12° NW 02:25:59 12° NW visible
01 Oct ? 00:59:02 10° N 01:00:18 19° N 01:00:18 19° N visible
01 Oct ? 02:36:40 10° NNW 02:37:02 11° NW 02:37:02 11° NW visible
02 Oct ? 01:10:07 10° N 01:11:22 19° N 01:11:22 19° N visible
03 Oct ? 01:21:14 10° N 01:22:24 18° N 01:22:24 18° N visible
03 Oct ? 23:56:38 10° NNE 23:56:43 10° NNE 23:56:43 10° NNE visible
04 Oct ? 01:32:23 10° N 01:33:27 16° N 01:33:27 16° N visible
